Regional Weather Roundup
Issued by NWS

Home | Current Version | Previous Version | Text Only | Print | Product List | Glossary Off
Versions: 1 2 3 4 5 6 7 8 9 10 11 12 13 14 15 16 17 18 19 20 21 22 23 24 25 26 27 28 29 30 31 32 33 34 35 36 37 38 39 40 41 42 43 44 45 46 47 48 49 50

000
ASUS44 KMEG 201210
RWRTN
TENNESSEE HOURLY STATE WEATHER ROUNDUP
NATIONAL WEATHER SERVICE MEMPHIS TN
700 AM CDT SAT SEP 20 2014

TNZ002-004-019-021-049-052-054-088>092-201300-
WEST TENNESSEE

CITY           SKY/WX    TMP DP  RH WIND       PRES   REMARKS
MEMPHIS INTL   PTCLDY    72  65  78 S5        30.05R
NWS MEMPHIS      N/A     68 N/A N/A MISG        N/A
JACKSON        CLEAR     69  65  86 VRB5      30.08R
DYERSBURG      CLEAR     64  55  72 CALM      30.08R
UNION CITY       N/A     59  59 100 CALM      30.06R VSB 1
PARIS          CLEAR     64  63  94 SE5       30.09R
HUNTINGDON     CLEAR     64  63  97 SE5       30.08R
LEXINGTON      CLEAR     66  64  94 S3        30.09R
SAVANNAH       CLEAR     66  66 100 S6        30.10R
$$

TNZ008-025-027-028-033-062-065-066-201300-
NORTH MIDDLE TENNESSEE

CITY           SKY/WX    TMP DP  RH WIND       PRES   REMARKS
NASHVILLE      PTCLDY    67  63  87 S6        30.12R
DICKSON        CLEAR     66  63  88 S8        30.10R
PORTLAND       CLEAR     64  63  94 S7        30.11R
CLARKSVILLE    CLEAR     63  61  93 SE5       30.09R FOG
LEBANON        PTCLDY    63  61  93 CALM      30.12R
SMYRNA         CLEAR     65  63  93 CALM      30.14R
MURFREESBORO   CLEAR     66  62  87 CALM      30.13R
COOKEVILLE     PTCLDY    66  61  82 CALM      30.15R
LIVINGSTON     PTCLDY    64  59  84 SW6       30.16R
GALLATIN       CLEAR     62  62 100 CALM      30.14R
CROSSVILLE     CLEAR     63  58  83 CALM      30.19R
$$

TNZ061-075-076-078-094-096-097-201300-
SOUTH MIDDLE TENNESSEE

CITY           SKY/WX    TMP DP  RH WIND       PRES   REMARKS
LEWISBURG      CLEAR     61  60  96 CALM      30.13R
FAYETTEVILLE   CLEAR     64  61  88 S5        30.14R
TULLAHOMA      CLEAR     64  61  88 SE7       30.15S
WINCHESTER     CLEAR     64  61  88 E7        30.15R
MCMINNVILLE    CLEAR     68  64  88 SW3       30.15R
COLUMBIA       CLEAR     66  66 100 CALM      30.11R
SHELBYVILLE    CLEAR     66  63  88 CALM      30.15R
$$

TNZ017-018-042-046-047-201300-
NORTHEAST TENNESSEE

CITY           SKY/WX    TMP DP  RH WIND       PRES   REMARKS
TRI CITIES     CLEAR     55  52  89 CALM      30.23R
ELIZABETHTON   SUNNY     61  55  82 E5        30.23R
$$

TNZ012-013-036-069-073-074-201300-
CENTRAL EAST TENNESSEE

CITY           SKY/WX    TMP DP  RH WIND       PRES   REMARKS
KNOXVILLE      PTCLDY    60  58  92 NE5       30.17R
OAK RIDGE      FOG       61  60  97 CALM      30.19R VSB 1/4
GATLINBURG     SUNNY     55  55 100 CALM      30.19R
MORRISTOWN     SUNNY     61  57  88 E5        30.21R
$$

TNZ083-085-099-201300-
SOUTHEAST TENNESSEE

CITY           SKY/WX    TMP DP  RH WIND       PRES   REMARKS
CHATTANOOGA    PTCLDY    64  60  87 CALM      30.17R
$$

SKY/WX REPORTED AS FAIR MEANS FEW OR NO CLOUDS BELOW
12 THOUSAND FEET.



USA.gov is the U.S. government's official web portal to all federal, state and local government web resources and services.